SCP
0 0 0 0 0 0 0 0 0 0 0 0 0 0 0 0 0 0 0 0 0 0 0 0 0 0 0 0 0 0 0 0 0 0 0 0 0 0 0 0 0 0 0
0 0 0 0 0 0 0 0 0 0 0 0 0 0 0 0 0 0 0 0 0 0 0 0 0 0 0 0 0 0 0 0 0 0 0 0 0 0 0 0 0 0 0
0 0 0 0 0 0 0 0 0 0 0 0 0 0 0 0 0 0 0 0 0 0 0 0 0 0 0 0 0 0 0 0 0 0 0 0 0 0 0 0 0 0 0
0 0 0 0 0 0 0 0 0 0 0 0 0 0 0 0 0 0 0 0 0 0 0 0 0 0 0 0 0 0 0 0 0 0 0 0 0 0 0 0 0 0 0
0 0 0 0 0 0 0 0 0 0 0 0 0 0 0 0 0 0 0 0 0 0 0 0 0 0 0 0 0 0 0 0 0 0 0 0 0 0 0 0 0 0 0
0 0 0 0 0 0 0 0 0 0 0 0 0 0 0 0 0 0 0 0 0 0 0 0 0 0 0 0 0 0 0 0 0 0 0 0 0 0 0 0 0 0 0
0 0 0 0 0 0 0 0 0 0 0 0 0 0 0 0 0 0 0 0 0 0 0 0 0 0 0 0 0 0 0 0 0 0 0 0 0 0 0 1 1 1 1
0 0 0 0 0 0 0 0 0 0 0 0 0 0 0 0 0 0 0 0 0 0 0 0 0 0 0 0 0 0 0 0 0 0 0 0 0 0 1 1 1 1 1
0 0 0 0 0 0 0 0 0 0 0 0 0 0 0 0 0 0 0 0 0 0 0 0 0 0 0 0 0 0 0 0 0 0 0 0 0 0 0 1 1 1 1
0 0 0 0 0 0 0 0 0 0 0 0 0 0 0 0 0 0 0 0 0 0 0 0 0 0 0 0 0 0 0 0 0 0 0 0 0 0 0 0 1 1 1
0 0 0 0 0 0 0 0 0 0 0 0 0 0 0 0 0 0 0 0 0 0 0 0 0 0 0 0 0 0 0 0 0 0 0 0 0 0 0 0 1 1 1
0 0 0 0 0 0 0 0 0 0 0 0 0 0 0 0 0 0 0 0 0 0 0 0 0 0 0 0 0 0 0 0 0 0 0 0 0 0 0 0 1 1 1
0 0 0 0 0 0 0 0 0 0 0 0 0 0 0 0 0 0 0 0 0 0 0 0 0 0 0 0 0 0 0 0 0 0 0 0 0 0 0 0 1 1 1
0 0 0 0 0 0 0 0 0 0 0 0 0 0 0 0 0 0 0 0 0 0 0 0 0 0 0 0 0 0 0 0 0 0 0 0 0 0 0 0 0 1 1
0 0 0 0 0 0 0 0 0 0 0 0 0 0 0 0 0 0 0 0 0 0 0 0 0 0 0 0 0 0 0 0 0 0 0 0 0 0 0 0 0 0 0
0 0 0 0 0 0 0 0 0 0 0 0 0 0 0 0 0 0 0 0 0 0 0 0 0 0 0 0 0 0 0 0 0 0 0 0 0 0 0 0 0 0 0
0 0 0 0 0 0 0 0 0 0 0 0 0 0 0 0 0 0 0 0 0 0 0 0 0 0 0 0 0 0 0 0 0 0 0 0 0 0 0 0 0 0 0
1 1 1 1 1 1 0 0 0 0 0 0 0 0 0 0 0 0 0 0 0 0 0 0 0 0 0 0 0 0 0 0 0 0 0 0 0 0 0 0 0 0 0
1 1 1 1 1 1 1 1 1 0 0 0 0 0 0 0 0 0 0 0 0 0 0 0 0 0 0 0 0 0 0 0 0 0 0 0 0 0 0 0 0 0 0
2 2 2 2 2 2 2 1 1 1 1 0 0 0 0 0 0 0 0 0 0 0 0 0 0 0 0 0 0 0 0 0 0 0 0 0 0 0 0 0 0 0 0
2 2 3 3 4 4 3 2 2 2 1 1 0 0 0 1 1 1 1 0 0 0 0 0 0 0 0 0 0 0 0 0 0 0 0 0 0 0 0 0 0 0 0
2 2 3 3 5 6 4 3 2 2 2 1 1 0 0 1 1 1 1 1 0 0 0 0 0 0 0 0 0 0 0 0 0 0 0 0 0 0 0 0 0 0 0
2 2 2 2 4 4 4 3 2 2 2 1 1 1 1 1 1 1 1 1 1 1 0 0 0 0 0 0 0 0 0 0 0 0 0 0 0 0 0 0 0 0 0
1 1 1 1 2 2 2 2 2 2 2 1 1 1 1 1 1 1 1 1 1 0 0 0 0 0 0 0 0 0 0 0 0 0 0 0 0 0 0 0 0 0 0
1 1 1 1 1 1 1 1 1 2 1 1 1 1 1 1 1 1 1 1 0 0 0 0 0 0 0 0 0 0 0 0 0 0 0 0 0 0 0 0 0 0 0
1 1 0 0 0 0 0 1 1 1 1 1 1 1 1 1 1 1 1 0 0 0 0 0 0 0 0 0 0 0 0 0 0 0 0 0 0 0 0 0 0 0 0
Wind_Speed
5 5 11 12 13 13 12 12 13 13 12 13 15 16 16 16 15 14 13 12 10 9 9 10 10 10 10 10 11 12 13 14 13 13 13 13 13 12 12 12 11 8 11
8 7 13 13 13 13 13 13 13 13 12 12 13 14 15 15 14 13 13 11 10 10 9 9 9 11 11 11 11 12 13 13 12 12 12 11 11 11 10 11 10 7 10
10 7 11 14 14 14 13 13 13 13 13 13 12 13 13 13 12 12 11 10 10 10 9 8 9 10 11 11 11 11 11 11 12 12 10 5 7 9 9 9 10 9 9
11 7 8 15 15 15 14 13 14 14 13 13 12 12 12 12 11 11 10 8 9 9 8 8 9 8 9 11 11 10 10 11 11 11 5 4 4 9 10 9 9 9 8
9 7 9 16 15 15 14 13 13 13 13 12 11 11 11 10 10 9 8 7 7 8 7 7 8 8 8 9 9 9 9 10 10 7 3 2 2 9 10 9 8 8 7
9 7 9 15 15 15 14 13 13 13 12 12 11 10 9 9 8 7 7 6 6 6 6 7 7 7 8 8 8 8 9 10 8 3 3 3 3 7 9 9 8 8 8
8 7 8 15 15 15 14 12 12 13 13 12 11 10 9 8 7 7 7 6 5 4 5 7 7 7 6 7 7 6 6 6 4 3 4 4 4 7 9 10 9 9 9
10 8 8 15 16 15 14 13 12 13 13 13 12 11 9 8 8 7 6 6 5 5 5 5 7 7 7 6 5 4 4 4 2 1 2 4 7 9 11 11 10 10 10
8 7 7 8 12 16 16 15 14 13 12 12 12 11 10 8 7 6 5 5 6 6 6 6 6 6 6 6 6 5 5 4 2 1 1 2 8 11 13 12 12 11 11
6 6 6 6 6 6 8 14 14 13 12 11 11 10 9 8 7 6 5 5 6 6 6 7 7 7 7 6 7 7 7 5 2 2 2 3 7 11 14 13 13 13 12
6 4 5 6 6 5 5 8 10 12 11 10 8 10 8 3 3 4 6 7 7 7 7 8 8 8 8 7 8 9 7 2 3 3 3 7 10 10 13 14 14 15 14
11 8 5 6 7 6 6 5 3 3 4 4 3 4 3 3 3 4 5 8 9 9 9 9 9 8 6 2 4 7 2 3 4 4 5 11 13 13 12 13 15 16 16
13 11 8 7 6 5 3 3 2 2 2 3 4 3 2 2 2 2 2 3 4 5 3 4 4 3 3 2 2 3 4 4 3 5 7 13 14 16 16 14 17 18 18
12 12 9 7 6 5 3 3 3 2 2 3 3 3 2 2 2 3 2 3 2 1 1 2 2 3 3 3 4 5 5 4 4 4 7 14 15 17 18 17 16 19 20
13 11 9 7 6 5 4 3 3 3 3 3 3 4 4 3 3 3 3 2 2 2 2 2 2 2 3 4 4 5 6 6 6 6 5 12 14 15 18 18 17 19 21
11 10 8 8 7 6 5 4 4 4 3 3 4 5 5 4 3 4 3 3 4 3 3 3 3 2 2 2 4 4 3 3 4 5 5 7 13 16 17 17 17 17 19
10 9 9 9 7 7 7 6 5 5 4 5 5 5 6 5 4 4 4 4 3 2 2 2 2 1 1 1 2 3 2 2 3 4 5 4 6 11 16 17 18 17 17
9 9 10 10 9 9 8 7 5 5 5 5 5 4 5 6 5 4 3 3 2 1 2 2 2 1 1 2 2 2 2 2 3 4 3 4 4 5 9 15 17 16 15
11 11 11 10 11 11 10 7 5 5 6 5 4 4 5 5 5 4 3 2 2 1 2 2 2 1 1 2 3 3 2 2 2 2 3 4 4 5 6 9 13 14 15
8 10 10 10 10 10 7 5 4 4 4 4 4 5 6 5 5 4 3 3 3 2 2 2 2 2 1 1 2 3 3 3 3 2 3 3 4 5 6 7 6 7 12
5 7 9 10 10 8 5 5 5 4 3 3 4 6 6 6 6 5 4 4 4 4 4 3 2 2 1 1 1 3 3 3 4 3 2 3 4 4 5 6 5 5 5
4 5 6 7 8 10 8 5 3 3 3 3 3 5 6 6 6 5 6 5 5 4 4 4 3 2 2 2 1 1 4 4 3 2 2 3 4 3 4 5 6 6 5
4 5 5 4 4 5 4 3 3 3 2 2 3 3 4 5 6 6 7 5 5 5 5 5 5 5 3 2 2 2 1 3 4 3 3 3 3 3 3 3 4 6 6
6 6 6 5 5 5 3 3 5 5 4 4 2 3 3 4 5 5 5 5 6 5 5 5 5 4 4 3 2 3 3 3 1 4 4 3 4 3 3 3 3 5 6
8 8 7 7 7 6 6 3 1 0 1 1 1 3 2 2 3 4 4 4 4 4 4 3 4 5 4 4 3 3 3 3 4 3 5 5 3 2 2 2 2 3 5
7 7 7 6 4 4 4 4 2 3 2 3 4 3 1 2 3 3 2 1 1 2 2 3 4 5 4 4 3 3 3 3 4 4 5 4 4 3 2 2 2 2 3
Wind_Direction
153 157 155 143 138 133 127 121 116 118 122 122 126 133 136 135 133 129 126 124 120 110 100 103 113 114 108 101 100 108 120 126 129 129 125 121 118 115 111 107 101 96 98
148 153 156 148 144 139 134 127 121 119 121 123 127 133 134 134 132 130 129 127 123 114 108 111 123 129 125 120 120 123 129 132 135 132 128 123 121 119 117 114 107 104 103
141 149 155 151 148 144 140 135 132 131 127 124 126 129 129 132 134 132 129 128 125 121 121 125 134 135 135 132 131 132 135 137 139 137 129 118 128 129 125 117 111 106 105
141 146 154 154 152 151 148 144 141 140 137 133 131 131 134 135 133 132 130 128 125 125 127 129 136 137 138 138 139 138 140 140 142 140 137 147 156 150 138 130 124 116 110
141 150 164 156 155 154 154 153 149 146 145 144 143 141 139 137 134 134 137 136 129 128 131 133 135 140 141 145 145 144 146 147 145 144 154 139 136 154 151 148 144 129 119
141 152 168 160 159 157 156 156 155 154 155 155 155 154 150 145 140 143 146 147 144 141 143 146 148 149 149 152 155 155 157 157 137 148 185 177 167 168 165 165 163 148 139
147 155 165 163 164 163 163 165 166 162 162 164 165 164 165 164 164 168 171 173 173 171 169 165 164 167 166 167 170 168 173 165 137 146 173 191 204 197 186 184 180 169 160
153 153 160 163 164 167 166 166 169 169 168 170 173 174 177 182 187 192 195 197 200 203 203 189 179 180 186 192 198 196 196 206 168 139 178 201 216 215 203 199 192 184 176
153 153 157 160 163 168 170 168 169 171 170 169 171 173 174 176 185 195 206 215 217 220 223 217 207 204 204 204 211 220 226 232 183 214 259 216 222 219 215 209 202 196 190
151 158 159 158 160 167 172 173 173 174 174 171 168 168 171 177 183 194 199 223 228 230 234 237 235 231 227 224 226 230 237 245 227 234 253 258 251 230 223 215 209 206 201
163 167 160 159 163 165 172 184 176 178 179 178 174 174 173 174 188 203 207 219 230 233 236 240 244 245 244 242 246 247 249 231 242 245 243 259 264 256 234 220 213 212 207
178 183 180 178 173 169 180 180 172 174 175 180 180 182 167 178 209 221 235 237 240 238 238 240 240 245 249 237 258 266 252 241 250 252 247 255 260 261 252 229 217 216 214
179 182 187 188 177 173 178 164 160 156 169 193 207 203 185 197 225 240 251 264 268 262 246 265 260 238 228 217 221 241 253 254 249 254 254 259 261 261 259 244 225 220 218
182 189 186 184 175 177 182 175 166 168 189 205 215 210 198 219 231 232 235 235 237 244 244 251 255 262 257 250 241 242 250 252 253 255 260 265 266 268 269 262 244 231 224
188 192 187 181 180 178 182 181 178 192 208 216 221 217 210 217 232 233 237 223 218 207 218 237 241 263 268 266 260 253 259 263 262 261 266 275 283 289 289 280 266 251 240
190 191 182 184 184 181 189 189 190 199 210 209 220 227 225 224 233 232 231 219 216 215 214 216 220 224 247 255 263 257 261 272 273 277 279 288 293 295 295 293 283 272 260
191 186 181 187 183 188 198 199 192 198 210 218 222 220 219 219 226 226 223 219 220 215 206 207 205 176 228 242 255 265 270 283 290 289 287 284 291 295 297 297 293 284 270
188 185 188 192 185 194 203 205 199 195 207 226 227 218 221 224 214 210 222 220 219 197 184 194 174 166 280 283 283 282 282 282 285 285 285 289 292 293 297 299 299 296 283
191 190 191 191 189 193 199 199 200 198 208 222 223 215 217 219 209 200 222 220 188 183 196 191 164 162 253 282 290 285 278 281 291 302 308 307 306 302 298 301 306 309 306
196 196 195 192 194 189 181 178 185 199 208 207 211 216 209 205 203 190 202 203 174 182 206 203 190 180 214 255 298 293 275 269 276 284 304 314 317 317 314 311 312 314 313
204 202 198 193 193 178 171 181 180 190 194 199 212 223 215 203 193 184 188 195 185 196 209 201 182 205 234 155 324 314 301 270 267 259 273 304 319 324 324 328 330 327 317
281 248 228 212 202 191 192 185 168 158 172 196 211 224 219 206 195 193 195 197 195 202 214 199 180 191 224 167 156 326 324 330 325 288 281 296 318 327 351 353 349 340 330
359 347 333 308 272 242 217 166 140 135 138 182 217 219 208 204 200 196 203 197 196 199 212 203 187 194 214 191 172 183 228 289 313 309 290 302 315 326 345 353 351 342 337
84 63 41 29 12 347 312 225 189 182 191 209 217 223 203 199 201 197 197 199 207 207 213 207 195 196 193 205 192 214 214 184 266 311 312 305 300 307 330 340 351 347 340
98 93 82 67 47 16 356 349 353 167 238 338 290 252 212 163 169 185 201 209 219 217 218 204 195 203 199 192 185 192 206 203 215 238 288 312 314 296 301 326 351 345 345
116 113 110 101 79 46 9 349 36 62 1 307 278 247 197 116 93 78 92 173 215 232 229 211 206 209 207 197 189 190 185 189 202 211 248 280 298 299 309 322 352 350 358